Content
SEND FEEDBACK

Daily
Averages
Monthly
Summary
United States of America

SAN JUAN, NEW MEXICO


Home > North America > United States > New Mexico
Elevation: 5640 feet     Latitude: 32 44N     Longitude: 107 39W

WEATHER
 
SELECT A DAY
Number of Records: 364,163;   Date Range: 2/13/95 - 8/12/14
 
SHARE

PRINT THIS DATA

[ ← Previous Day ]
WEATHER ALMANAC - FEBRUARY 13, 2013
[ Next Day → ]
[ °C ]   °F
Weather ElementAverageHighLow
Temperature35 °F53.6 °F (3:55 pm)17.6 °F (4:55 am)
Dewpoint8 °F10.4 °F (2:15 pm)5 °F (5:55 am)
Humidity35.7 %63 % (4:55 am)15 % (3:55 pm)
Barometer30.12 in30.18 in (8:55 am)30.06 in (3:15 pm)
Wind Speed10.5 mph18.4 mph (4:55 pm)
Wind Gust21.9 mph (3:35 pm)
Weather ElementAverage
Visibility10 mi
Wind DirectionWNW (288.7 °)

Weather ElementTotal
Precipitation---
Heating Degree Days29.4 (Base 65)
Averaged from 69 records on February 13, 2013
WEATHER CONDITIONS BREAKOUT
WIND DIRECTION BREAKOUT
WEATHER BY HOUR - FEBRUARY 13, 2013
[ °C ]   °F
Local TimeTemperatureDewpointHumidityBarometerVisibilityWind DirectionWind SpeedGust SpeedPrecipitationEventsConditions
12:35 AM24.8 °F8.6 °F50 %30.16 in10.0 miNNW (340°)10.4 mphClear
12:55 AM23.0 °F8.6 °F54 %30.15 in10.0 miNorth (350°)15.0 mphClear
1:15 AM24.8 °F6.8 °F46 %30.15 in10.0 miNorth (350°)11.5 mphClear
1:35 AM24.8 °F6.8 °F46 %30.15 in10.0 miNNW (330°)10.4 mphClear
1:55 AM24.8 °F6.8 °F46 %30.16 in10.0 miNW (310°)10.4 mphClear
2:15 AM23.0 °F6.8 °F50 %30.15 in10.0 miWNW (300°)12.7 mphClear
2:35 AM23.0 °F6.8 °F50 %30.15 in10.0 miNW (320°)8.1 mphClear
2:55 AM19.4 °F6.8 °F58 %30.15 in10.0 miNNW (330°)8.1 mphClear
3:15 AM19.4 °F6.8 °F58 %30.15 in10.0 miNNW (340°)8.1 mphClear
3:35 AM21.2 °F6.8 °F54 %30.14 in10.0 miNorth (350°)10.4 mphClear
3:55 AM21.2 °F6.8 °F54 %30.13 in10.0 miNNW (340°)10.4 mphClear
4:15 AM23.0 °F8.6 °F54 %30.13 in10.0 miNNW (340°)11.5 mphClear
4:35 AM19.4 °F6.8 °F58 %30.13 in10.0 miNorth (350°)10.4 mphClear
4:55 AM17.6 °F6.8 °F63 %30.12 in10.0 miNorth (350°)10.4 mphClear
5:15 AM19.4 °F6.8 °F58 %30.12 in10.0 miNorth (350°)9.2 mphClear
5:35 AM19.4 °F6.8 °F58 %30.12 in10.0 miNNW (340°)8.1 mphClear
5:55 AM17.6 °F5.0 °F58 %30.13 in10.0 miNNW (340°)10.4 mphClear
6:15 AM17.6 °F5.0 °F58 %30.13 in10.0 miNNW (330°)10.4 mphClear
6:35 AM17.6 °F5.0 °F58 %30.13 in10.0 miNNW (330°)11.5 mphClear
6:55 AM19.4 °F5.0 °F54 %30.14 in10.0 miNNW (340°)10.4 mphClear
7:15 AM21.2 °F5.0 °F50 %30.14 in10.0 miNorth (350°)9.2 mphClear
7:35 AM23.0 °F6.8 °F50 %30.15 in10.0 miNorth (350°)6.9 mphClear
7:55 AM28.4 °F5.0 °F37 %30.16 in10.0 miNNW (340°)8.1 mphClear
8:15 AM30.2 °F6.8 °F37 %30.17 in10.0 miNNW (330°)9.2 mphClear
8:35 AM32.0 °F6.8 °F35 %30.17 in10.0 miNNW (330°)8.1 mphClear
8:55 AM35.6 °F6.8 °F30 %30.18 in10.0 miNW (320°)6.9 mphClear
9:15 AM35.6 °F6.8 °F30 %30.18 in10.0 miNW (320°)5.8 mphClear
9:55 AM39.2 °F6.8 °F26 %30.18 in10.0 miWSW (240°)3.5 mphClear
10:15 AM41.0 °F8.6 °F26 %30.18 in10.0 miSSW (200°)5.8 mphClear
10:35 AM41.0 °F8.6 °F26 %30.18 in10.0 miSSW (200°)5.8 mphClear
10:55 AM42.8 °F8.6 °F25 %30.18 in10.0 miSouth (170°)6.9 mphClear
11:15 AM44.6 °F6.8 °F21 %30.18 in10.0 miSW (230°)5.8 mphClear
11:35 AM44.6 °F6.8 °F21 %30.16 in10.0 miSSW (210°)8.1 mphClear
11:55 AM44.6 °F6.8 °F21 %30.15 in10.0 miSW (220°)9.2 mphClear
12:15 PM44.6 °F8.6 °F23 %30.14 in10.0 miSouth (170°)6.9 mphClear
12:35 PM46.4 °F8.6 °F22 %30.13 in10.0 miSSW (210°)6.9 mphClear
12:55 PM46.4 °F8.6 °F22 %30.12 in10.0 miSSW (200°)9.2 mphClear
1:15 PM48.2 °F8.6 °F20 %30.10 in10.0 miSSW (200°)9.2 mphClear
1:35 PM48.2 °F8.6 °F20 %30.09 in10.0 miSouth (180°)12.7 mph16.1 mphClear
1:55 PM50.0 °F8.6 °F19 %30.08 in10.0 miSSW (210°)10.4 mphClear
2:15 PM50.0 °F10.4 °F20 %30.07 in10.0 miSW (230°)12.7 mphClear
2:35 PM50.0 °F10.4 °F20 %30.07 in10.0 miSSW (200°)11.5 mph17.3 mphClear
2:55 PM50.0 °F8.6 °F19 %30.07 in10.0 miSW (220°)12.7 mph17.3 mphClear
3:15 PM50.0 °F8.6 °F19 %30.06 in10.0 miSSW (200°)13.8 mph18.4 mphClear
3:35 PM51.8 °F6.8 °F16 %30.06 in10.0 miSouth (190°)12.7 mph21.9 mphClear
3:55 PM53.6 °F6.8 °F15 %30.06 in10.0 miWNW (300°)16.1 mph19.6 mphClear
4:15 PM50.0 °F6.8 °F17 %30.06 in10.0 miWNW (290°)17.3 mphClear
4:35 PM50.0 °F6.8 °F17 %30.07 in10.0 miWNW (290°)16.1 mphClear
4:55 PM50.0 °F6.8 °F17 %30.06 in10.0 miWNW (290°)18.4 mphClear
5:15 PM48.2 °F8.6 °F20 %30.07 in10.0 miWNW (300°)15.0 mphClear
5:35 PM46.4 °F8.6 °F22 %30.07 in10.0 miWNW (300°)13.8 mphClear
5:55 PM44.6 °F8.6 °F23 %30.08 in10.0 miWest (280°)8.1 mphClear
6:15 PM44.6 °F8.6 °F23 %30.08 in10.0 miWest (280°)5.8 mphClear
6:35 PM42.8 °F8.6 °F25 %30.08 in10.0 miNorth (10°)4.6 mphClear
6:55 PM39.2 °F8.6 °F28 %30.08 in10.0 miNNW (330°)11.5 mphClear
7:15 PM41.0 °F10.4 °F29 %30.09 in10.0 miNNW (330°)16.1 mph20.7 mphClear
7:55 PM39.2 °F10.4 °F31 %30.10 in10.0 miNNW (330°)16.1 mphClear
8:15 PM39.2 °F10.4 °F31 %30.09 in10.0 miNNW (340°)16.1 mph20.7 mphClear
8:35 PM39.2 °F10.4 °F31 %30.11 in10.0 miNNW (340°)13.8 mphClear
8:55 PM37.4 °F10.4 °F33 %30.11 in10.0 miNorth (360°)12.7 mphClear
9:15 PM32.0 °F10.4 °F41 %30.11 in10.0 miNNW (340°)11.5 mphClear
9:35 PM33.8 °F10.4 °F38 %30.12 in10.0 miNorth (350°)10.4 mphClear
9:55 PM33.8 °F10.4 °F38 %30.12 in10.0 miNorth (360°)11.5 mphClear
10:15 PM32.0 °F10.4 °F41 %30.12 in10.0 miNorth (10°)10.4 mphClear
10:35 PM32.0 °F10.4 °F41 %30.12 in10.0 miNorth (360°)12.7 mphClear
10:55 PM32.0 °F10.4 °F41 %30.12 in10.0 miNorth (350°)12.7 mphClear
11:15 PM32.0 °F10.4 °F41 %30.12 in10.0 miNorth (360°)11.5 mphClear
11:35 PM32.0 °F10.4 °F41 %30.12 in10.0 miNorth (350°)10.4 mphClear
11:55 PM32.0 °F10.4 °F41 %30.12 in10.0 miNW (320°)9.2 mphClear
Hourly data recorded from KSVC, located miles away from San Juan, New Mexico







STORIES FROM OUR PARTNERS